Pearblossom Past Weather

Last 30 Days

High: 55ºf @11:54 AM    Low: 48ºf @5:54 AM     Approx. Precipitation / Rain Total: in.
Time (PST)Temp. (ºf)Humidity (%)Dew Point (ºf)Barometer (inHG)Wind Speed (mph)Wind DirectionWind Gust (mph)1hr. Precip / Rain Total (in.)Snow Depth
11:54 AM555438.66-9.56s26.94--
10:54 AM545739.11-7.82s26.94--
9:54 AM545437.73-6.95s18.25--
8:54 AM525435.88-6.08sse26.07--
7:54 AM504931.6-13.03sse30.41--
6:54 AM496136.14-7.82ssw21.72--
5:54 AM485934.36-9.56ssw21.72--
4:54 AM495131.67-9.56s24.33--
3:54 AM505634.93-6.08ese23.46--
2:54 AM486938.32-2.61ese21.72--
1:54 AM505534.48-6.95wsw19.99--
12:54 AM506337.91-5.21ssw13.9--
High: 63ºf @1:54 PM    Low: 35ºf @5:54 AM     Approx. Precipitation / Rain Total: in.
Time (PST)Temp. (ºf)Humidity (%)Dew Point (ºf)Barometer (inHG)Wind Speed (mph)Wind DirectionWind Gust (mph)1hr. Precip / Rain Total (in.)Snow Depth
11:54 PM496537.75-3.48sse25.2--
10:54 PM506036.67-4.34s17.38--
9:54 PM505936.24-3.48se14.77--
8:54 PM486436.41-5.21se13.03--
7:54 PM496035.73-4.34ssw11.3--
6:54 PM495834.87-5.21s19.12--
5:54 PM505233.07-5.21s14.77--
4:54 PM524732.4-5.21se19.99--
3:54 PM564233.24-9.56ese18.25--
2:54 PM603028.48-3.48ene15.64--
1:54 PM632425.64-4.34sse14.77--
12:54 PM632829.38-2.61se9.56--
11:54 AM584436.21-6.95ene12.17--
10:54 AM564836.59-6.08n10.43--
9:54 AM535436.8-4.34nne11.3--
8:54 AM496738.53-3.48ne7.82--
7:54 AM457738.23-0.87n6.08--
6:54 AM388935.05-4.34e6.95--
5:54 AM359633.98-4.34ene6.08--
4:54 AM369434.44-3.48e6.08--
3:54 AM379134.62-1.74ene8.69--
2:54 AM369534.71-6.08e7.82--
1:54 AM389536.7-3.48ese5.21--
12:54 AM359533.72-2.61ese6.08--
High: 64ºf @12:54 PM    Low: 37ºf @11:54 PM     Approx. Precipitation / Rain Total: in.
Time (PST)Temp. (ºf)Humidity (%)Dew Point (ºf)Barometer (inHG)Wind Speed (mph)Wind DirectionWind Gust (mph)1hr. Precip / Rain Total (in.)Snow Depth
11:54 PM379034.34-0.87nw4.34--
10:54 PM398233.98-1.74e6.95--
9:54 PM408134.65-0.87e6.08--
8:54 PM446934.49-4.34nne7.82--
7:54 PM456835.08-1.74ese6.08--
6:54 PM505032.1-2.61nne11.3--
5:54 PM543728.32-3.48e13.03--
4:54 PM622525.78-5.21sw13.03--
3:54 PM633131.89-3.48ese12.17--
2:54 PM633333.44-6.08ese16.51--
1:54 PM632930.24-7.82w13.03--
12:54 PM642931.11-5.21s19.12--
11:54 AM633434.19-3.48nne10.43--
10:54 AM604136.23-2.61sse8.69--
9:54 AM594336.53-3.48nne6.95--
8:54 AM574535.87-0.87ssw4.34--
7:54 AM505735.37-2.61wnw6.08--
6:54 AM407432.39-1.74e6.08--
5:54 AM387530.79-0.87wsw6.08--
4:54 AM387631.12-1.74s6.08--
3:54 AM445930.6-1.74se5.21--
2:54 AM455529.82-1.74sw5.21--
1:54 AM455630.26-0.87s4.34--
12:54 AM465631.19-1.74ssw7.82--
High: 66ºf @2:54 PM    Low: 35ºf @5:54 AM     Approx. Precipitation / Rain Total: in.
Time (PST)Temp. (ºf)Humidity (%)Dew Point (ºf)Barometer (inHG)Wind Speed (mph)Wind DirectionWind Gust (mph)1hr. Precip / Rain Total (in.)Snow Depth
11:54 PM514228.72-2.61ssw7.82--
10:54 PM504931.6-1.74w4.34--
9:54 PM505132.59---4.34--
8:54 PM515434.95---6.95--
7:54 PM515535.41-1.74s5.21--
6:54 PM525837.69-0.87s11.3--
5:54 PM555137.21-1.74s8.69--
4:54 PM623634.74-6.08w12.17--
3:54 PM653335.19-4.34wnw8.69--
2:54 PM663033.67-1.74wnw8.69--
1:54 PM633131.89-4.34wsw9.56--
12:54 PM633534.92-5.21nnw8.69--
11:54 AM623936.76-4.34nnw8.69--
10:54 AM594135.33-4.34n8.69--
9:54 AM584134.43-4.34nnw6.95--
8:54 AM583127.54---2.61--
7:54 AM514731.49---3.48--
6:54 AM387530.79-2.61e4.34--
5:54 AM359333.18-2.61ese4.34--
4:54 AM379335.17-1.74e6.08--
3:54 AM408836.74-2.61ne7.82--
2:54 AM464023.05-6.08ene9.56--
1:54 AM435728.82-4.34ene7.82--
12:54 AM398534.88-3.48ese6.08--
High: 61ºf @3:54 PM    Low: 40ºf @11:54 PM     Approx. Precipitation / Rain Total: in.
Time (PST)Temp. (ºf)Humidity (%)Dew Point (ºf)Barometer (inHG)Wind Speed (mph)Wind DirectionWind Gust (mph)1hr. Precip / Rain Total (in.)Snow Depth
11:54 PM408736.45-3.48e5.21--
10:54 PM418938.01-2.61ese5.21--
9:54 PM428838.71-3.48e5.21--
8:54 PM448238.86-3.48e4.34--
7:54 PM458239.84-2.61e6.08--
6:54 PM477439.15-4.34se5.21--
5:54 PM516640.05-0.87sse6.08--
4:54 PM565138.13-3.48nnw9.56--
3:54 PM614438.93-3.48nnw9.56--
2:54 PM614338.34-3.48nnw8.69--
1:54 PM594437.12-5.21nnw13.9--
12:54 PM584838.42-6.95wnw13.03--
11:54 AM565339.11-6.08wnw13.03--
10:54 AM575139.05-8.69wnw18.25--
9:54 AM545538.2-10.43w17.38--
8:54 AM545638.66-7.82wsw15.64--
7:54 AM525737.24-6.08sw13.9--
6:54 AM496336.96-6.95sw12.17--
5:54 AM487139.05-4.34ssw16.51--
4:54 AM468441.44-10.43w15.64--
3:54 AM448439.48-3.48sse10.43--
2:54 AM506237.5-6.95ssw12.17--
1:54 AM487038.69-5.21wsw10.43--
12:54 AM458440.46-1.74sw10.43--
High: 62ºf @12:54 PM    Low: 40ºf @2:54 AM     Approx. Precipitation / Rain Total: in.
Time (PST)Temp. (ºf)Humidity (%)Dew Point (ºf)Barometer (inHG)Wind Speed (mph)Wind DirectionWind Gust (mph)1hr. Precip / Rain Total (in.)Snow Depth
11:54 PM497340.73-4.34ssw11.3--
10:54 PM439641.94-4.34ene8.69--
9:54 PM449241.83-2.61ese10.43--
8:54 PM488142.45-2.61sw11.3--
7:54 PM526641-4.34ssw7.82--
6:54 PM517944.72-4.34wsw10.43--
5:54 PM498745.3-1.74wsw7.82--
4:54 PM536039.49-4.34s10.43--
3:54 PM575038.55-5.21wsw11.3--
2:54 PM565037.63-6.95se13.03--
1:54 PM613633.86-5.21nnw12.17--
12:54 PM623231.8-4.34nnw10.43--
11:54 AM602625.02-3.48ne11.3--
10:54 AM593833.43-6.08n11.3--
9:54 AM573529.62-1.74e12.17--
8:54 AM534632.78-0.87s4.34--
7:54 AM504630.04-0.87se4.34--
6:54 AM532719.93-1.74ene8.69--
5:54 AM484326.58-3.48e6.95--
4:54 AM456031.96-2.61ene6.08--
3:54 AM436632.43-2.61ene6.95--
2:54 AM407332.06-1.74ese---
1:54 AM435929.66-2.61sse4.34--
12:54 AM416329.38-0.87wsw6.08--
High: 61ºf @3:54 PM    Low: 41ºf @3:54 AM     Approx. Precipitation / Rain Total: in.
Time (PST)Temp. (ºf)Humidity (%)Dew Point (ºf)Barometer (inHG)Wind Speed (mph)Wind DirectionWind Gust (mph)1hr. Precip / Rain Total (in.)Snow Depth
11:54 PM426029.13-1.74ese5.21--
10:54 PM435728.82-0.87nw6.08--
9:54 PM465731.63-3.48e6.95--
8:54 PM484527.68-0.87sw5.21--
7:54 PM484527.68-0.87ese6.95--
6:54 PM533425.39-2.61ene8.69--
5:54 PM571915.16-4.34ese14.77--
4:54 PM601816.39-1.74nne10.43--
3:54 PM613533.15-1.74nne6.95--
2:54 PM594235.94-3.48nw7.82--
1:54 PM604236.84-3.48nnw8.69--
12:54 PM594034.71-2.61wnw6.08--
11:54 AM564434.4-3.48nw8.69--
10:54 AM554936.19-5.21wnw9.56--
9:54 AM584033.82-3.48wnw7.82--
8:54 AM555237.7-0.87ene2.61--
7:54 AM467939.86-1.74e3.48--
6:54 AM418436.54-1.74ese5.21--
5:54 AM418235.93-2.61e5.21--
4:54 AM418336.24-1.74ese5.21--
3:54 AM418235.93-0.87ese4.34--
2:54 AM427935.97-1.74e3.48--
1:54 AM437736.29-0.87ese5.21--
12:54 AM437736.29-1.74e5.21--
High: 62ºf @3:54 PM    Low: 42ºf @4:54 AM     Approx. Precipitation / Rain Total: in.
Time (PST)Temp. (ºf)Humidity (%)Dew Point (ºf)Barometer (inHG)Wind Speed (mph)Wind DirectionWind Gust (mph)1hr. Precip / Rain Total (in.)Snow Depth
11:54 PM437635.96-1.74e5.21--
10:54 PM427935.97-1.74ene4.34--
9:54 PM437936.94-1.74e3.48--
8:54 PM438237.89-0.87se5.21--
7:54 PM457738.23-1.74ese5.21--
6:54 PM477539.49-1.74e4.34--
5:54 PM525837.69-1.74s5.21--
4:54 PM604236.84-3.48nw7.82--
3:54 PM624238.64-4.34nw7.82--
2:54 PM624238.64-3.48nw7.82--
1:54 PM604538.6-4.34wnw8.69--
12:54 PM594437.12-1.74wnw6.95--
11:54 AM564736.06-5.21nnw9.56--
10:54 AM554634.6-1.74wsw6.08--
9:54 AM544834.76-3.48ene7.82--
8:54 AM524933.44-6.08wnw8.69--
7:54 AM485934.36-3.48e6.95--
6:54 AM446633.38-2.61se5.21--
5:54 AM436933.54-1.74e5.21--
4:54 AM427634.99-0.87e3.48--
3:54 AM427534.66-0.87n5.21--
2:54 AM437334.95-0.87ne3.48--
1:54 AM437134.25-1.74se4.34--
12:54 AM437033.9-0.87sse5.21--
High: 60ºf @1:54 PM    Low: 39ºf @6:54 AM     Approx. Precipitation / Rain Total: in.
Time (PST)Temp. (ºf)Humidity (%)Dew Point (ºf)Barometer (inHG)Wind Speed (mph)Wind DirectionWind Gust (mph)1hr. Precip / Rain Total (in.)Snow Depth
11:54 PM436833.17-1.74ene3.48--
10:54 PM436933.54-1.74ese5.21--
9:54 PM456333.17-1.74nw6.95--
8:54 PM446934.49-1.74ssw5.21--
7:54 PM457236.53-0.87ese3.48--
6:54 PM476134.26-1.74ese3.48--
5:54 PM524531.32-2.61e12.17--
4:54 PM563629.43-8.69ne14.77--
3:54 PM573529.62-9.56ne14.77--
2:54 PM593430.67-7.82ne14.77--
1:54 PM603431.55-7.82ne16.51--
12:54 PM593934.08-10.43ene17.38--
11:54 AM583530.51-9.56ne16.51--
10:54 AM583429.79-11.3ene18.25--
9:54 AM554031.13-10.43ne18.25--
8:54 AM564032.02-6.95ene12.17--
7:54 AM466334.12-0.87e3.48--
6:54 AM397531.76-2.61ene4.34--
5:54 AM407332.06-2.61e6.08--
4:54 AM426932.58-4.34ene6.08--
3:54 AM407733.38-2.61e4.34--
2:54 AM407332.06-2.61ese7.82--
1:54 AM396829.35-3.48e6.95--
12:54 AM405223.81---1.74--
High: 58ºf @3:54 PM    Low: 32ºf @5:54 AM     Approx. Precipitation / Rain Total: in.
Time (PST)Temp. (ºf)Humidity (%)Dew Point (ºf)Barometer (inHG)Wind Speed (mph)Wind DirectionWind Gust (mph)1hr. Precip / Rain Total (in.)Snow Depth
11:54 PM395624.65-0.87wsw3.48--
10:54 PM395825.49-0.87n3.48--
9:54 PM425527.02-0.87s3.48--
8:54 PM426129.54---6.95--
7:54 PM426731.85-1.74e6.95--
5:54 PM475732.57-2.61se6.08--
4:54 PM563528.74-4.34nne8.69--
3:54 PM583731.88-4.34nne9.56--
2:54 PM584033.82-4.34n9.56--
1:54 PM574234.14-4.34n9.56--
12:54 PM564736.06-3.48wnw9.56--
11:54 AM554735.14-3.48n8.69--
10:54 AM535235.85-5.21nnw8.69--
9:54 AM525335.4-2.61nnw6.08--
8:54 AM523927.82-0.87w3.48--
7:54 AM455328.91---2.61--
6:54 AM347025.26-0.87ene4.34--
5:54 AM327926.24-2.61e6.08--
4:54 AM337826.9-1.74e5.21--
3:54 AM337726.59-3.48ene5.21--
2:54 AM347526.92-2.61ene6.08--
1:54 AM357427.57-0.87se6.95--
12:54 AM367027.18---3.48--
High: 56ºf @2:54 PM    Low: 36ºf @11:54 PM     Approx. Precipitation / Rain Total: in.
Time (PST)Temp. (ºf)Humidity (%)Dew Point (ºf)Barometer (inHG)Wind Speed (mph)Wind DirectionWind Gust (mph)1hr. Precip / Rain Total (in.)Snow Depth
11:54 PM367127.52-3.48ene5.21--
10:54 PM377128.49-0.87wsw5.21--
9:54 PM397130.41-2.61w6.95--
8:54 PM407532.73-0.87sse6.08--
7:54 PM418336.24-4.34e8.69--
6:54 PM438639.1-2.61e6.95--
5:54 PM467638.87-2.61ssw12.17--
4:54 PM534934.36-6.08wnw13.03--
3:54 PM565037.63-8.69w16.51--
2:54 PM565339.11-11.3w17.38--
1:54 PM565841.43-11.3w18.25--
12:54 PM565640.53-8.69w15.64--
11:54 AM555940.94-3.48w14.77--
10:54 AM536541.55-6.08w10.43--
9:54 AM526138.97-3.48wnw8.69--
8:54 AM516640.05-1.74sse4.34--
7:54 AM449141.54-0.87ese3.48--
6:54 AM409338.14-0.87nne8.69--
5:54 AM409338.14-5.21se8.69--
4:54 AM399337.15-5.21w18.25--
3:54 AM419940.74-4.34wnw8.69--
2:54 AM409739.22-0.87ne5.21--
1:54 AM399738.22-0.87ese6.08--
12:54 AM399838.48-0.87w6.08--
High: 49ºf @9:54 AM    Low: 38ºf @10:54 PM     Approx. Precipitation / Rain Total: in.
Time (PST)Temp. (ºf)Humidity (%)Dew Point (ºf)Barometer (inHG)Wind Speed (mph)Wind DirectionWind Gust (mph)1hr. Precip / Rain Total (in.)Snow Depth
11:54 PM3910039-2.61nne4.34--
10:54 PM389837.49-3.48ene5.21--
9:54 PM409839.48-2.61ese4.34--
8:54 PM429640.94-2.61e5.21--
7:54 PM439842.47-0.87sse5.21--
6:54 PM459443.38-0.87s3.48--
5:54 PM478943.93-1.74w13.03--
4:54 PM488844.62-10.43nw16.51--
3:54 PM478542.73-10.43e16.51--
2:54 PM478743.33-2.61e13.9--
1:54 PM478843.63-1.74se7.82--
12:54 PM497441.08---14.77--
11:54 AM497942.77-9.56e14.77--
10:54 AM489546.64-2.61nw11.3--
9:54 AM499347.06-6.95wnw9.56--
8:54 AM479545.64-0.87ne6.95--
7:54 AM469845.47-0.87nnw5.21--
6:54 AM469845.47-0.87wnw4.34--
5:54 AM469745.2-1.74ese6.08--
4:54 AM469444.37-0.87sw4.34--
3:54 AM478843.63-2.61w8.69--
2:54 AM479244.8-0.87ne10.43--
1:54 AM469544.65-4.34w9.56--
12:54 AM479345.08-5.21nnw10.43--
High: 60ºf @12:54 PM    Low: 46ºf @12:54 AM     Approx. Precipitation / Rain Total: in.
Time (PST)Temp. (ºf)Humidity (%)Dew Point (ºf)Barometer (inHG)Wind Speed (mph)Wind DirectionWind Gust (mph)1hr. Precip / Rain Total (in.)Snow Depth
11:54 PM479244.8-3.48nw6.95--
10:54 PM489245.79-0.87e5.21--
9:54 PM498544.69-4.34ene6.95--
8:54 PM498243.75-2.61e8.69--
7:54 PM526540.6-6.95se14.77--
6:54 PM536139.91-6.95sse13.03--
5:54 PM526239.39-5.21se13.03--
4:54 PM555639.59-5.21se14.77--
3:54 PM575540.99-6.95se18.25--
2:54 PM585240.47-8.69se24.33--
1:54 PM595241.4-10.43se21.72--
12:54 PM605041.3-5.21sse22.59--
11:54 AM585340.96-8.69se19.99--
10:54 AM585340.96-6.08ese17.38--
9:54 AM585742.85-5.21ene15.64--
8:54 AM527243.26-5.21ssw10.43--
7:54 AM479445.36-3.48ese12.17--
6:54 AM469544.65-5.21se13.03--
5:54 AM488242.77-1.74ene11.3--
4:54 AM498243.75-2.61ssw13.9--
3:54 AM498845.6-3.48sw9.56--
2:54 AM517643.7-2.61nne6.08--
1:54 AM498544.69-1.74wnw7.82--
12:54 AM469745.2-2.61sse5.21--
High: 66ºf @1:54 PM    Low: 38ºf @6:54 AM     Approx. Precipitation / Rain Total: in.
Time (PST)Temp. (ºf)Humidity (%)Dew Point (ºf)Barometer (inHG)Wind Speed (mph)Wind DirectionWind Gust (mph)1hr. Precip / Rain Total (in.)Snow Depth
11:54 PM479345.08-2.61sw5.21--
10:54 PM489346.07-1.74nnw4.34--
9:54 PM489646.91-2.61nne4.34--
8:54 PM499246.78-1.74w6.08--
7:54 PM518546.65-2.61se4.34--
6:54 PM536641.95-1.74ene10.43--
5:54 PM546341.69-6.95se10.43--
4:54 PM604639.16-5.21ene8.69--
3:54 PM643535.8-4.34ssw13.9--
2:54 PM644039.19-10.43w14.77--
1:54 PM663235.29-2.61sw8.69--
12:54 PM653335.19-1.74sse6.95--
11:54 AM623634.74-2.61ene9.56--
10:54 AM603834.32-0.87n9.56--
9:54 AM564233.24-5.21e9.56--
8:54 AM544834.76-5.21ene8.69--
7:54 AM476636.24-0.87se6.08--
6:54 AM388333.3-2.61se9.56--
5:54 AM418035.31-0.87ese6.08--
4:54 AM457035.81-3.48sw12.17--
3:54 AM467036.77-7.82w11.3--
2:54 AM457537.56-1.74n5.21--
1:54 AM457136.17-2.61n4.34--
12:54 AM466836.04-0.87sw3.48--
High: 64ºf @1:54 PM    Low: 36ºf @6:54 AM     Approx. Precipitation / Rain Total: in.
Time (PST)Temp. (ºf)Humidity (%)Dew Point (ºf)Barometer (inHG)Wind Speed (mph)Wind DirectionWind Gust (mph)1hr. Precip / Rain Total (in.)Snow Depth
11:54 PM466735.67-1.74se5.21--
10:54 PM476134.26-6.95n15.64--
9:54 PM466233.72-1.74sse13.03--
8:54 PM532013.02-4.34s19.12--
7:54 PM542216.03-2.61e13.03--
6:54 PM532316.21-2.61nnw10.43--
5:54 PM533123.19-5.21ese9.56--
4:54 PM602119.96-4.34sse10.43--
3:54 PM612019.65-6.95s11.3--
2:54 PM633635.62-5.21wnw9.56--
1:54 PM643535.8-5.21nnw10.43--
12:54 PM623936.76-4.34nnw8.69--
11:54 AM624138.03-4.34nw7.82--
10:54 AM604035.61-3.48nw6.95--
9:54 AM583933.18-0.87s3.48--
8:54 AM554332.92---2.61--
7:54 AM495332.62-0.87e4.34--
6:54 AM368130.75---5.21--
5:54 AM387631.12-1.74ese5.21--
4:54 AM406428.82-2.61e4.34--
3:54 AM387731.44-3.48ese4.34--
2:54 AM416931.62-2.61e4.34--
1:54 AM397933.05-3.48ene4.34--
12:54 AM377931.1-1.74ese3.48--
High: 60ºf @3:54 PM    Low: 33ºf @2:54 AM     Approx. Precipitation / Rain Total: in.
Time (PST)Temp. (ºf)Humidity (%)Dew Point (ºf)Barometer (inHG)Wind Speed (mph)Wind DirectionWind Gust (mph)1hr. Precip / Rain Total (in.)Snow Depth
11:54 PM397230.75-1.74e4.34--
10:54 PM426029.13---4.34--
9:54 PM427233.64-1.74se2.61--
8:54 PM427032.94-1.74e5.21--
7:54 PM457035.81-2.61e5.21--
6:54 PM467237.49-2.61ese4.34--
5:54 PM496437.36---4.34--
4:54 PM584436.21-3.48nnw6.08--
3:54 PM604035.61-3.48wnw7.82--
2:54 PM603934.97-3.48nw7.82--
1:54 PM593934.08-6.08nw9.56--
12:54 PM593934.08-5.21wnw7.82--
11:54 AM583832.54-4.34n9.56--
10:54 AM583530.51-2.61nw6.08--
9:54 AM563327.31-2.61nnw6.08--
8:54 AM543224.82-0.87sw2.61--
7:54 AM444926.08-1.74sse5.21--
6:54 AM375421.92-1.74e6.08--
5:54 AM365822.67-2.61ene4.34--
4:54 AM346322.75-1.74se4.34--
3:54 AM355922.14-1.74ene4.34--
2:54 AM336422.17-3.48e4.34--
1:54 AM355721.33-2.61ne5.21--
12:54 AM355922.14-1.74ese5.21--
High: 60ºf @2:54 PM    Low: 36ºf @2:54 AM     Approx. Precipitation / Rain Total: in.
Time (PST)Temp. (ºf)Humidity (%)Dew Point (ºf)Barometer (inHG)Wind Speed (mph)Wind DirectionWind Gust (mph)1hr. Precip / Rain Total (in.)Snow Depth
11:54 PM375723.2-0.87ssw6.95--
10:54 PM376526.35-1.74se6.08--
8:54 PM397531.76-2.61se4.34--
7:54 PM417634.02-2.61s6.95--
6:54 PM447135.21-1.74wsw3.48--
5:54 PM476535.85-2.61sse5.21--
4:54 PM544834.76-3.48w13.03--
3:54 PM584033.82-8.69wnw14.77--
2:54 PM603934.97-9.56wnw14.77--
1:54 PM603632.97-6.95nnw14.77--
12:54 PM593430.67-10.43wnw17.38--
11:54 AM584838.42-6.95w12.17--
10:54 AM565037.63-5.21wnw12.17--
9:54 AM525737.24-6.95wnw15.64--
8:54 AM515635.86-3.48nw13.03--
7:54 AM515635.86-4.34w9.56--
6:54 AM486034.79-4.34sw13.03--
5:54 AM396929.71-1.74e6.08--
4:54 AM387430.46-0.87nne5.21--
3:54 AM415425.64-1.74s7.82--
2:54 AM367930.13-4.34ene6.95--
1:54 AM386627.67-2.61nnw6.08--
12:54 AM387229.79-0.87ese6.08--
High: 64ºf @2:54 PM    Low: 34ºf @4:54 AM     Approx. Precipitation / Rain Total: in.
Time (PST)Temp. (ºf)Humidity (%)Dew Point (ºf)Barometer (inHG)Wind Speed (mph)Wind DirectionWind Gust (mph)1hr. Precip / Rain Total (in.)Snow Depth
11:54 PM416228.99-2.61w6.08--
10:54 PM406127.65-1.74sse5.21--
9:54 PM454726-1.74ese6.08--
8:54 PM435628.39-0.87se5.21--
7:54 PM436230.88-1.74e5.21--
6:54 PM447436.25-0.87ssw4.34--
5:54 PM496537.75-0.87se6.95--
4:54 PM584536.78-6.08ne13.03--
3:54 PM632223.56-8.69wnw13.03--
2:54 PM642527.48-6.08wsw9.56--
1:54 PM643031.94-3.48n9.56--
12:54 PM632829.38-1.74ne8.69--
11:54 AM612928.52-3.48nnw8.69--
10:54 AM602826.81-3.48nw8.69--
9:54 AM592523.23-1.74nw4.34--
8:54 AM562924.2-0.87s2.61--
7:54 AM474426.23-1.74se4.34--
6:54 AM355821.74-1.74ese6.08--
5:54 AM346322.75-1.74ese5.21--
4:54 AM346423.12-2.61ene5.21--
3:54 AM365822.67-2.61se4.34--
2:54 AM366023.48-3.48ese6.95--
1:54 AM365822.67-3.48ene6.95--
12:54 AM375622.78-1.74ese6.08--
High: 61ºf @2:54 PM    Low: 29ºf @6:54 AM     Approx. Precipitation / Rain Total: in.
Time (PST)Temp. (ºf)Humidity (%)Dew Point (ºf)Barometer (inHG)Wind Speed (mph)Wind DirectionWind Gust (mph)1hr. Precip / Rain Total (in.)Snow Depth
11:54 PM375321.48-1.74ese5.21--
10:54 PM375723.2-2.61e5.21--
9:54 PM386125.76-1.74e5.21--
8:54 PM386426.92-1.74ese5.21--
7:54 PM426229.94-0.87e4.34--
6:54 PM455931.54-0.87ese4.34--
5:54 PM495433.09---4.34--
4:54 PM584335.63-3.48se4.34--
3:54 PM593531.39-2.61ne8.69--
2:54 PM613432.43-3.48n8.69--
1:54 PM603230.06-1.74w7.82--
12:54 PM573529.62-4.34nw7.82--
11:54 AM563327.31-0.87se9.56--
10:54 AM553225.69-1.74wnw6.08--
9:54 AM533324.68-4.34nnw6.95--
8:54 AM523726.54---2.61--
7:54 AM416028.19-1.74ese4.34--
6:54 AM297923.32-2.61ene5.21--
5:54 AM307723.68-3.48e4.34--
4:54 AM307823.99-3.48e5.21--
3:54 AM327224.01-4.34e5.21--
2:54 AM365621.84-2.61sse6.95--
1:54 AM346623.85-1.74ese4.34--
12:54 AM346423.12-0.87e3.48--
High: 56ºf @2:54 PM    Low: 28ºf @5:54 AM     Approx. Precipitation / Rain Total: in.
Time (PST)Temp. (ºf)Humidity (%)Dew Point (ºf)Barometer (inHG)Wind Speed (mph)Wind DirectionWind Gust (mph)1hr. Precip / Rain Total (in.)Snow Depth
11:54 PM327725.62-0.87se4.34--
10:54 PM328026.54-2.61ene5.21--
9:54 PM337826.9-3.48ene5.21--
8:54 PM366625.76-1.74ese4.34--
7:54 PM367127.52-1.74ene3.48--
6:54 PM396227.1-1.74ene6.08--
5:54 PM425326.12-1.74se6.95--
4:54 PM532719.93-4.34nne9.56--
3:54 PM552418.88-5.21nne9.56--
2:54 PM562419.73-5.21n10.43--
1:54 PM552721.64-3.48n9.56--
12:54 PM532921.61-6.08nnw10.43--
11:54 AM532820.78-6.95nne10.43--
10:54 AM522819.92-6.95n10.43--
9:54 AM512919.88-6.95nne10.43--
8:54 AM483118.83-1.74ssw3.48--
7:54 AM405123.35---4.34--
6:54 AM296719.44-0.87e4.34--
5:54 AM286919.17-0.87s3.48--
4:54 AM296619.09-3.48ene5.21--
3:54 AM287420.8-1.74e4.34--
2:54 AM315918.37-3.48e5.21--
1:54 AM306921.08-3.48e5.21--
12:54 AM297221.12-3.48e5.21--
High: 53ºf @2:54 PM    Low: 30ºf @11:54 PM     Approx. Precipitation / Rain Total: in.
Time (PST)Temp. (ºf)Humidity (%)Dew Point (ºf)Barometer (inHG)Wind Speed (mph)Wind DirectionWind Gust (mph)1hr. Precip / Rain Total (in.)Snow Depth
11:54 PM307121.76-0.87se4.34--
10:54 PM326621.95-2.61ene4.34--
9:54 PM317824.96-3.48e4.34--
8:54 PM337224.98-2.61e4.34--
7:54 PM356524.44-3.48ese4.34--
6:54 PM366625.76-2.61ese4.34--
5:54 PM395524.22-1.74se6.08--
4:54 PM493018.93-5.21nne10.43--
3:54 PM513020.67-6.95nne12.17--
2:54 PM533123.19-4.34ne13.9--
1:54 PM513121.44-6.08nne12.17--
12:54 PM513020.67-6.95nne13.03--
11:54 AM493018.93-6.95nne13.03--
10:54 AM483018.06-6.95ne14.77--
9:54 AM473017.19-10.43nne15.64--
8:54 AM472815.61-1.74w4.34--
7:54 AM413817.36-1.74ese5.21--
6:54 AM315315.9-2.61ese6.95--
5:54 AM335016.41-5.21ene8.69--
4:54 AM344816.4-6.08ene8.69--
3:54 AM335016.41-4.34e7.82--
2:54 AM344916.87-5.21e7.82--
1:54 AM325316.83-2.61e7.82--
12:54 AM344816.4-5.21ene8.69--
High: 49ºf @2:54 PM    Low: 31ºf @5:54 AM     Approx. Precipitation / Rain Total: in.
Time (PST)Temp. (ºf)Humidity (%)Dew Point (ºf)Barometer (inHG)Wind Speed (mph)Wind DirectionWind Gust (mph)1hr. Precip / Rain Total (in.)Snow Depth
11:54 PM344816.4-5.21ene7.82--
10:54 PM364315.7-4.34ene7.82--
9:54 PM364416.23-5.21ese7.82--
8:54 PM393614.34-5.21e8.69--
7:54 PM365220.1-6.08ene8.69--
6:54 PM385221.96-4.34ene8.69--
5:54 PM385623.72-4.34ese6.95--
4:54 PM473319.41-4.34ne7.82--
3:54 PM483118.83-6.08nne10.43--
2:54 PM493119.7-6.08n12.17--
1:54 PM483118.83-4.34n13.03--
12:54 PM483320.29-6.08ne15.64--
11:54 AM453519.01-9.56ene18.25--
10:54 AM443618.78-6.08nne13.9--
9:54 AM433517.24-6.08ene12.17--
8:54 AM424421.69-6.95e10.43--
7:54 AM386426.92-2.61e5.21--
6:54 AM317824.96-3.48ese5.21--
5:54 AM318928.15-1.74e6.08--
4:54 AM328929.13-2.61e6.08--
3:54 AM367930.13---3.48--
2:54 AM367629.18-0.87ssw6.95--
1:54 AM367328.2-2.61wsw6.08--
12:54 AM367528.86-1.74sw6.08--
High: 48ºf @1:54 PM    Low: 29ºf @2:54 AM     Approx. Precipitation / Rain Total: in.
Time (PST)Temp. (ºf)Humidity (%)Dew Point (ºf)Barometer (inHG)Wind Speed (mph)Wind DirectionWind Gust (mph)1hr. Precip / Rain Total (in.)Snow Depth
11:54 PM357427.57-1.74sw6.08--
10:54 PM318627.31---4.34--
9:54 PM328528.01-0.87ssw5.21--
8:54 PM357628.21-0.87wsw6.08--
7:54 PM367027.18-1.74wsw9.56--
6:54 PM387129.45-5.21wsw10.43--
5:54 PM387430.46-3.48w10.43--
4:54 PM417031.98-7.82wnw12.17--
3:54 PM465530.75-4.34wsw10.43--
2:54 PM445729.76-5.21wnw11.3--
1:54 PM485231.22-5.21w12.17--
12:54 PM475330.77-4.34nnw8.69--
11:54 AM465430.3-3.48n7.82--
10:54 AM455730.69-5.21nnw8.69--
9:54 AM446432.62-0.87wnw4.34--
8:54 AM407633.06-2.61nw6.08--
7:54 AM367227.86-0.87nne4.34--
6:54 AM308425.76-2.61ese6.08--
5:54 AM308826.89-3.48ne5.21--
4:54 AM329630.99---5.21--
3:54 AM319630-3.48e6.08--
2:54 AM299728.26-1.74sse3.48--
1:54 AM309629-1.74sse5.21--
12:54 AM319429.48-0.87se5.21--
High: 50ºf @1:54 PM    Low: 30ºf @5:54 AM     Approx. Precipitation / Rain Total: in.
Time (PST)Temp. (ºf)Humidity (%)Dew Point (ºf)Barometer (inHG)Wind Speed (mph)Wind DirectionWind Gust (mph)1hr. Precip / Rain Total (in.)Snow Depth
11:54 PM329430.47-2.61ese5.21--
10:54 PM319730.25-3.48e5.21--
9:54 PM339531.73---6.08--
8:54 PM359032.37-2.61ne6.08--
7:54 PM396528.25-4.34w6.95--
6:54 PM406027.25-4.34sw8.69--
5:54 PM406428.82-1.74s10.43--
4:54 PM435829.25-3.48ese8.69--
3:54 PM474828.34-6.08w12.17--
2:54 PM494428.05-5.21sw11.3--
1:54 PM503825.4-5.21sw15.64--
12:54 PM483722.98-7.82wnw13.9--
11:54 AM464224.21-6.08wnw15.64--
10:54 AM434925.16-6.08w15.64--
9:54 AM405223.81-8.69wsw19.12--
8:54 AM375924.02-10.43wsw20.86--
7:54 AM375221.03-7.82wsw13.9--
6:54 AM336121.04-4.34w12.17--
5:54 AM309027.43-2.61sse9.56--
4:54 AM309729.25-5.21wnw10.43--
3:54 AM318627.31-0.87sse7.82--
2:54 AM338629.28-4.34w8.69--
1:54 AM3210032-2.61se6.08--
12:54 AM339832.5-6.08wnw12.17--
High: 51ºf @11:54 AM    Low: 33ºf @6:54 AM     Approx. Precipitation / Rain Total: in.
Time (PST)Temp. (ºf)Humidity (%)Dew Point (ºf)Barometer (inHG)Wind Speed (mph)Wind DirectionWind Gust (mph)1hr. Precip / Rain Total (in.)Snow Depth
11:54 PM386125.76-9.56sw24.33--
10:54 PM396728.99-10.43wsw26.07--
9:54 PM408435.56-5.21ssw30.41--
8:54 PM397933.05-13.03s33.02--
7:54 PM407231.71-17.38s33.02--
6:54 PM416730.9-12.17s27.81--
5:54 PM425928.72-7.82s21.72--
4:54 PM436331.28-7.82s25.2--
3:54 PM465329.84-13.03s27.81--
2:54 PM494930.68-5.21nne22.59--
1:54 PM494729.66-4.34ese18.25--
12:54 PM513625-6.08s14.77--
11:54 AM513020.67-6.08ssw12.17--
10:54 AM503624.11-6.08w19.99--
9:54 AM465329.84-11.3wnw19.12--
8:54 AM455328.91-5.21wsw11.3--
7:54 AM426129.54-6.08wsw10.43--
6:54 AM338930.12-1.74ene5.21--
5:54 AM387129.45-3.48w8.69--
4:54 AM347928.18-0.87ene9.56--
3:54 AM405123.35-5.21ssw11.3--
2:54 AM377028.14-2.61ese9.56--
1:54 AM396227.1-3.48ssw8.69--
12:54 AM388533.9-0.87e6.08--
High: 38ºf @6:54 PM    Low: 38ºf @6:54 PM     Approx. Precipitation / Rain Total: in.
Time (PST)Temp. (ºf)Humidity (%)Dew Point (ºf)Barometer (inHG)Wind Speed (mph)Wind DirectionWind Gust (mph)1hr. Precip / Rain Total (in.)Snow Depth
11:54 PM388834.77-2.61e6.95--
10:54 PM389536.7-1.74sse5.21--
9:54 PM389336.16-2.61wsw8.69--
8:54 PM389837.49-0.87ssw4.34--
7:54 PM3810038-0.87wnw5.21--
6:54 PM389937.74---2.61--
5:54 PM389837.49---5.21--
Past Weather Disclaimer Note regarding "Approx. Precipitation / Rain Total"

Currently

Light Rain 52°F
29.91in
Barometer
77%
Humidity
Southwest 16.1mph
Wind
Light Rain

Past Weather Nearby

More Local Information

Bookmark and Share